Location: Aix-en-Ergny
(50.5839°N, 1.9996°E)
Time: 19:30:05
(UTC+00:00)

NOSS 3-4 (C) - Pass Details

Date: 23 October 2019
Orbit: 908 x 1304 km, 63.4° (Epoch: 10 November)

Event Time Altitude Azimuth Distance (km) Brightness Sun altitude
Exits shadow 04:47:33 25° 258° (WSW) 1,817 4.3 -16.4°
Maximum altitude 04:51:05 53° 324° (NW) 1,176 3.7 -15.9°
Drops below altitude 10° 04:57:31 10° 41° (NE) 2,832 6.5 -14.9°
Sets 05:00:21 0° 47° (NE) 3,848 7.4 -14.4°
